Location: Newark
(44.1667°N, 8.2500°E)
Time: 13:26:59
(UTC+00:00)

S-56A Canister/Altair - Pass Details

Date: 13 December 2019
Orbit: 634 x 2498 km, 38.9° (Epoch: 23 January)

Event Time Altitude Azimuth Distance (km) Brightness Sun altitude
Rises 16:38:23 0° 281° (W) 6,009 13.1 -8.7°
Reaches altitude 10° 16:45:57 10° 257° (WSW) 4,674 13.1 -10.0°
Maximum altitude 16:50:14 12° 237° (WSW) 4,227 12.7 -10.7°
Drops below altitude 10° 16:54:08 10° 216° (SW) 4,151 12.2 -11.3°
Sets 16:59:53 0° 189° (S) 4,682 12.0 -12.3°
